Miscellaneous Local Product
Issued by NWS North Platte, NE

Home | Current Version | Previous Version | Text Only | Print | Product List | Glossary On
Versions: 1 2 3 4 5 6 7 8 9 10 11 12 13 14 15 16 17 18 19 20 21 22 23 24 25 26 27 28 29 30 31 32 33 34 35 36 37 38 39 40 41 42 43 44 45 46 47 48 49 50
000
AXUS43 KLBF 310010
MISLBF


WESTERN AND NORTH CENTRAL NEBRASKA HOURLY WEATHER ROUNDUP
NATIONAL WEATHER SERVICE NORTH PLATTE NE
700 PM CDT THU JUL 30 2015

***STATIONS NOT REPORTING VARIABLES SUCH AS SKY/WEATHER OR
PRESSURE ARE PROVIDED BY THE NEBRASKA DEPARTMENT OF
ROADS...RAWS...AND APRS NETWORKS...AND ARE NOT UNDER
NATIONAL WEATHER SERVICE QUALITY CONTROL***

...OBSERVATIONS IN AND NEAR THE EASTERN PANHANDLE OF NEBRASKA...

CITY           SKY/WX    TMP DP  RH WIND       PRES   REMARKS
PINE RIDGE     SUNNY     88  44  21 NE3       30.20F
CHADRON        SUNNY     89  42  19 CALM      30.19F
ALLIANCE       SUNNY     88  48  25 NE6       30.21F
SIDNEY         MOSUNNY   81  60  48 S13       30.24F
$$

...OBSERVATIONS IN NORTH CENTRAL NEBRASKA...

CITY           SKY/WX    TMP DP  RH WIND       PRES   REMARKS
VALENTINE      SUNNY     90  43  19 N10       30.16S
THEDFORD       PTSUNNY   81  63  54 E5        30.19S
AINSWORTH      SUNNY     87  56  35 NE5       30.15F
O`NEILL        MOSUNNY   86  62  44 NE5       30.13S
ORD            MOSUNNY   86  62  44 SW6       30.11F
BROKEN BOW     MOSUNNY   88  63  43 S7        30.16F
SPRINGVIEW       N/A     88  53  29 NE3         N/A
CHAMBERS         N/A     87  60  40 S5G12       N/A
EWING            N/A     88  69  52 CALM        N/A  HX  92
$$

...OBSERVATIONS IN SOUTHWEST NEBRASKA AND FAR NORTHEAST COLORADO...

CITY           SKY/WX    TMP DP  RH WIND       PRES   REMARKS
WRAY           LGT RAIN  74  61  63 W7G24     30.24R
IMPERIAL       PTSUNNY   89  55  31 SE14      30.17F
OGALLALA       TSTM      69  64  86 W17G23    30.23R
NORTH PLATTE   SUNNY     83  58  42 S7        30.15F
MCCOOK         MOSUNNY   88  60  38 SE10      30.15F
LEXINGTON      SUNNY     88  63  42 S10       30.15F
CALLAWAY         N/A     86  72  62 S3          N/A  HX  92
$$

...NORTH PLATTE AREA...

CITY           SKY/WX    TMP DP  RH WIND       PRES   REMARKS
AIRPORT        SUNNY     83  58  42 S7        30.15F
DOWNTOWN         N/A     86  59  40 SE3         N/A
SANDRIDGE        N/A     85  58  40 S5          N/A
HILLCREST        N/A     84  60  43 S7          N/A
$$

...SOME WEATHER OBSERVATIONS FROM AROUND THE REGION...

CITY           SKY/WX    TMP DP  RH WIND       PRES   REMARKS
DENVER         MOSUNNY   90  40  17 N10G20    30.26F
LARAMIE        SUNNY     80  24  12 NE7       30.41F
CHEYENNE       SUNNY     82  42  24 E10       30.34F
SCOTTSBLUFF    SUNNY     89  44  20 SE7       30.21F
RAPID CITY     SUNNY     85  45  24 CALM      30.21F
PIERRE         SUNNY     90  44  20 N8        30.08F
WINNER         FAIR      91  49  23 NW7       30.13F
SIOUX FALLS    MOSUNNY   84  59  42 W7        30.10F
OMAHA          MOSUNNY   89  60  37 CALM      30.10F
GRAND ISLAND   SUNNY     87  64  46 VRB6      30.14F
KANSAS CITY    PTSUNNY   83  66  56 SW3       30.14F
WICHITA        MOSUNNY   84  67  56 E7        30.13F
HAYS           SUNNY     86  64  48 SE6       30.14F
LIBERAL        PTSUNNY   81  66  61 E3        30.19F
GOODLAND       SUNNY     86  55  34 SE14G20   30.20F
$$



USA.gov is the U.S. government's official web portal to all federal, state and local government web resources and services.